Waarnemingen

Advertentie
Mijn weer
Lulea/Kallax, Zweden (2186): temperatuur & dauwpunt: 03.12.2018 21:00:00 - 09.12.2018 21:00:00 (CET)Lulea/Kallax, Zweden (2186): windsnelheid & windstoten: 03.12.2018 21:00:00 - 09.12.2018 21:00:00 (CET)Lulea/Kallax, Zweden (2186): windrichting: 03.12.2018 21:00:00 - 09.12.2018 21:00:00 (CET)Lulea/Kallax, Zweden (2186): luchtdruk: 03.12.2018 21:00:00 - 09.12.2018 21:00:00 (CET)Lulea/Kallax, Zweden (2186): zicht: 03.12.2018 21:00:00 - 09.12.2018 21:00:00 (CET)Lulea/Kallax, Zweden (2186): neerslag: 03.12.2018 21:00:00 - 09.12.2018 21:00:00 (CET)
Datum & Tijd tt [°C] td [°C] ff [km/u] ff [kn] fx [km/u] fx [kn] dd ppp [hPa] vv [km] rr [mm]
09.12.2018 21:00:00 1,6 1,4 16 9 25 14 ZO 990,6 5 0,6
09.12.2018 20:00:00 1,5 1,4 13 7 22 12 ZO 990,1 6 1,0
09.12.2018 19:00:00 1,7 1,4 16 9 25 14 ZO 989,5 10 1,0
09.12.2018 18:00:00 1,8 1,7 21 11 25 14 ZO 989,0 4,8 0,6
09.12.2018 17:00:00 1,9 1,6 16 9 22 12 ZO 988,2 4,4 0,8
09.12.2018 16:00:00 1,7 1,4 13 7 22 12 OZO 987,9 6 2,0
09.12.2018 15:00:00 0,8 0,7 11 6 14 8 ONO 987,4 6 0,9
09.12.2018 14:00:00 0,2 -0,1 11 6 32 18 ZO 987,4 3,0 0,5
09.12.2018 13:00:00 1,2 0,6 13 7 22 12 OZO 986,9 8 0,7
09.12.2018 12:00:00 1,1 0,8 11 6 22 12 OZO 986,8 10 0,9
09.12.2018 11:00:00 1,3 1,0 13 7 22 12 OZO 986,8 10 0,2
09.12.2018 10:00:00 1,1 0,8 8 4 14 8 OZO 986,6 10 0,0
09.12.2018 09:00:00 1,1 1,0 11 6 14 8 ZZO 986,3 10 0,2
09.12.2018 08:00:00 0,7 0,6 0 0 7 4 N 985,8 2,9 0,4
09.12.2018 07:00:00 0,5 0,4 5 3 11 6 ONO 985,1 1,5 0,2
09.12.2018 06:00:00 0,5 0,4 5 3 11 6 O 984,7 10 0,0
09.12.2018 05:00:00 0,2 0,1 5 3 11 6 O 984,4 9 0,2
09.12.2018 04:00:00 0,1 0,0 8 4 14 8 OZO 984,3 2,6 0,3
09.12.2018 03:00:00 0,0 -0,3 9 5 14 8 OZO 984,3 2,0 0,4
09.12.2018 02:00:00 -0,1 -0,4 9 5 14 8 O 984,5 1,4 0,6
09.12.2018 01:00:00 -0,3 -0,6 8 4 22 12 O 984,9 1,0 1,0
09.12.2018 00:00:00 -0,4 -0,7 13 7 22 12 O 985,5 1,3 1,0
08.12.2018 23:00:00 -0,7 -1,0 8 4 22 12 O 986,1 1,1 1,0
08.12.2018 22:00:00 -0,8 -1,1 11 6 25 14 O 986,9 0,7 2,0
08.12.2018 21:00:00 -0,7 -1,0 13 7 25 14 O 987,6 1,2 1,0
08.12.2018 20:00:00 -0,7 -1,0 13 7 25 14 ONO 988,4 0,9 2,0
08.12.2018 19:00:00 -0,8 -1,1 11 6 22 12 O 989,2 1,2 1,0
08.12.2018 18:00:00 -0,6 -0,9 9 5 18 10 O 989,9 2,4 0,5
08.12.2018 17:00:00 -0,5 -0,8 9 5 18 10 O 990,5 2,8 0,3
08.12.2018 16:00:00 -0,4 -0,7 5 3 14 8 O 990,9 3,0 0,4
08.12.2018 15:00:00 -0,7 -1,0 5 3 11 6 O 991,8 6 0,4
08.12.2018 14:00:00 -2,8 -3,3 4 2 7 4 NO 992,4 1,8 0,1
08.12.2018 13:00:00 -4,0 -4,5 0 0 7 4 N 993,0 3,6 0,1
08.12.2018 12:00:00 -4,8 -5,3 0 0 7 4 N 993,2 10 0,0
08.12.2018 11:00:00 -5,3 -5,8 4 2 7 4 NNW 993,7 10 0,0
08.12.2018 10:00:00 -5,6 -6,1 4 2 7 4 NNW 994,1 10 0,0
08.12.2018 09:00:00 -5,9 -6,6 2 1 7 4 NNW 994,5 10 0,0
08.12.2018 08:00:00 -5,8 -6,5 4 2 7 4 N 994,7 10 0,0
08.12.2018 07:00:00 -6,2 -6,7 2 1 7 4 - 994,8 10 0,0
08.12.2018 06:00:00 -6,2 -6,9 2 1 7 4 N 995,1 10 0,0
08.12.2018 05:00:00 -6,4 -7,1 2 1 7 4 N 995,1 10 0,0
08.12.2018 04:00:00 -6,8 -7,6 4 2 7 4 N 995,6 10 0,0
08.12.2018 03:00:00 -7,2 -8,0 4 2 7 4 NNW 995,9 9 0,0
08.12.2018 02:00:00 -7,5 -8,3 2 1 7 4 - 996,3 10 0,0
08.12.2018 01:00:00 -7,9 -8,8 2 1 7 4 - 997,0 10 0,0
08.12.2018 00:00:00 -8,2 -9,1 4 2 11 6 NW 997,4 10 0,0
07.12.2018 23:00:00 -8,7 -9,8 2 1 11 6 - 997,7 10 0,0
07.12.2018 22:00:00 -8,9 -10,0 4 2 7 4 - 998,0 10 0,0
07.12.2018 21:00:00 -9,0 -10,1 4 2 11 6 N 998,2 10 0,0
07.12.2018 20:00:00 -9,3 -10,4 4 2 11 6 - 998,8 10 0,0
07.12.2018 19:00:00 -10,1 -11,1 5 3 11 6 N 999,4 10 0,0
07.12.2018 18:00:00 -11,0 -12,2 4 2 14 8 - 1000,0 5 0,0
07.12.2018 17:00:00 -11,7 -12,9 5 3 14 8 N 1000,9 4,0 0,1
07.12.2018 16:00:00 -11,8 -13,1 8 4 14 8 N 1001,5 10 0,0
07.12.2018 15:00:00 -12,0 -13,3 2 1 11 6 - 1002,0 10 0,0
07.12.2018 14:00:00 -12,9 -14,3 2 1 7 4 - 1002,8 10 0,0
07.12.2018 13:00:00 -13,7 -15,1 2 1 7 4 - 1003,2 10 0,0
07.12.2018 12:00:00 -15,1 -16,6 0 0 7 4 N 1003,4 8 0,0
07.12.2018 11:00:00 -15,9 -17,6 5 3 7 4 NW 1003,9 7 0,0
07.12.2018 10:00:00 -17,0 -18,0 2 1 - - NNW - 10 -
07.12.2018 09:00:00 -16,3 -18,0 4 2 7 4 NNW 1003,8 10 0,0
07.12.2018 08:00:00 -16,4 -18,1 4 2 7 4 N 1004,0 10 0,0
07.12.2018 07:00:00 -15,5 -17,0 2 1 7 4 NNW 1003,7 10 0,0
07.12.2018 06:00:00 -15,8 -17,5 4 2 7 4 NNW 1003,8 10 0,0
07.12.2018 05:00:00 -15,2 -16,7 0 0 4 2 N 1004,3 10 0,0
07.12.2018 04:00:00 -14,7 -16,2 0 0 4 2 N 1004,7 10 0,0
07.12.2018 03:00:00 -13,7 -15,1 0 0 4 2 N 1004,8 10 0,0
07.12.2018 02:00:00 -13,8 -15,2 0 0 0 0 N 1005,0 10 0,0
07.12.2018 01:00:00 -13,1 -14,4 0 0 4 2 N 1004,9 10 0,0
07.12.2018 00:00:00 -13,1 -14,5 0 0 4 2 N 1005,2 10 0,0
06.12.2018 23:00:00 -12,6 -13,9 0 0 0 0 N 1005,4 10 0,0
06.12.2018 22:00:00 -12,6 -13,9 0 0 0 0 N 1005,4 10 0,0
06.12.2018 21:00:00 -13,2 -14,8 0 0 7 4 N 1005,5 10 0,0
06.12.2018 20:00:00 -11,3 -12,5 0 0 4 2 N 1005,5 10 0,0
06.12.2018 19:00:00 -11,3 -12,5 2 1 11 6 W 1005,3 10 0,0
06.12.2018 18:00:00 -11,6 -12,6 0 0 7 4 N 1005,3 10 0,0
06.12.2018 17:00:00 -11,2 -12,2 0 0 7 4 N 1005,0 10 0,0
06.12.2018 16:00:00 -10,3 -11,3 0 0 7 4 N 1004,9 10 0,0
06.12.2018 15:00:00 -10,6 -11,6 0 0 11 6 N 1005,0 10 0,0
06.12.2018 14:00:00 -8,9 -9,7 4 2 11 6 W 1004,7 10 0,0
06.12.2018 13:00:00 -8,1 -9,2 0 0 7 4 N 1004,6 10 0,0
06.12.2018 12:00:00 -7,5 -8,7 8 4 22 12 WNW 1004,4 10 0,0
06.12.2018 11:00:00 -8,3 -9,1 5 3 7 4 W 1004,2 10 0,0
06.12.2018 10:00:00 -9,1 -10,0 0 0 7 4 N 1003,7 10 0,0
06.12.2018 09:00:00 -6,8 -8,6 8 4 11 6 WNW 1003,3 10 0,0
06.12.2018 08:00:00 -6,4 -8,4 9 5 14 8 WNW 1002,9 10 0,0
06.12.2018 07:00:00 -5,4 -7,8 9 5 18 10 WNW 1002,3 10 0,0
06.12.2018 06:00:00 -5,3 -7,6 5 3 11 6 WNW 1001,8 10 0,0
06.12.2018 05:00:00 -5,8 -7,5 4 2 7 4 WNW 1001,5 10 0,0
06.12.2018 04:00:00 -5,3 -7,3 0 0 7 4 N 1001,1 10 0,0
06.12.2018 03:00:00 -5,4 -7,1 8 4 18 10 NNW 1000,6 10 0,0
06.12.2018 02:00:00 -5,2 -7,0 13 7 18 10 WNW 1000,3 10 0,0
06.12.2018 01:00:00 -6,2 -7,9 9 5 18 10 NW 1000,1 10 0,0
06.12.2018 00:00:00 -4,3 -6,1 13 7 14 8 WNW 999,9 10 0,0
05.12.2018 23:00:00 -4,3 -5,5 5 3 14 8 WNW 999,6 10 0,0
05.12.2018 22:00:00 -3,3 -4,9 11 6 14 8 WNW 999,3 10 0,0
05.12.2018 21:00:00 -2,9 -3,9 8 4 18 10 WNW 999,0 10 0,0
05.12.2018 20:00:00 -2,8 -3,6 13 7 22 12 W 998,9 10 0,0
05.12.2018 19:00:00 -2,7 -3,2 8 4 22 12 W 998,8 10 0,0
05.12.2018 18:00:00 -2,8 -3,3 5 3 14 8 NW 998,8 10 0,0
05.12.2018 17:00:00 -3,5 -3,9 0 0 4 2 N 999,1 10 0,0
05.12.2018 16:00:00 -3,0 -3,4 0 0 4 2 N 999,3 10 0,0
05.12.2018 15:00:00 -3,1 -3,5 4 2 7 4 NW 999,4 10 0,0
05.12.2018 14:00:00 -2,9 -3,3 2 1 7 4 NW 999,7 6 0,0
05.12.2018 13:00:00 -3,0 -3,4 8 4 18 10 NNW 999,7 2,5 0,2
05.12.2018 12:00:00 -3,0 -3,5 15 8 22 12 NNW 999,9 10 0,0
05.12.2018 11:00:00 -3,2 -3,7 13 7 18 10 NW 1000,0 10 0,0
05.12.2018 10:00:00 -3,2 -3,7 11 6 18 10 NNW 999,8 10 0,0
05.12.2018 09:00:00 -3,1 -3,6 9 5 18 10 NNW 999,6 10 0,0
05.12.2018 08:00:00 -3,1 -3,6 13 7 22 12 NNW 999,1 10 0,2
05.12.2018 07:00:00 -3,1 -3,5 11 6 22 12 NNW 999,0 4,0 0,2
05.12.2018 06:00:00 -3,1 -3,5 13 7 18 10 NNW 998,8 9 0,0
05.12.2018 05:00:00 -3,2 -3,6 9 5 18 10 NNW 998,5 4,6 0,3
05.12.2018 04:00:00 -3,1 -3,5 11 6 22 12 NNW 998,3 4,9 0,3
05.12.2018 03:00:00 -3,0 -3,4 9 5 18 10 N 998,0 3,7 0,1
05.12.2018 02:00:00 -2,7 -3,1 8 4 14 8 N 997,8 1,4 0,5
05.12.2018 01:00:00 -2,5 -2,9 8 4 14 8 N 997,5 1,3 1,0
05.12.2018 00:00:00 -2,0 -2,3 9 5 14 8 NNO 997,4 1,7 1,0
04.12.2018 23:00:00 -1,5 -1,8 9 5 18 10 NNO 997,2 1,1 0,6
04.12.2018 22:00:00 -0,9 -1,0 8 4 22 12 NO 996,9 5 0,0
04.12.2018 21:00:00 -0,1 -0,4 5 3 14 8 ONO 996,3 2,6 0,1
04.12.2018 20:00:00 0,2 -0,1 5 3 14 8 O 996,2 3,2 0,1
04.12.2018 19:00:00 0,3 0,0 9 5 14 8 O 995,9 10 0,0
04.12.2018 18:00:00 0,3 0,0 9 5 14 8 O 995,9 4,6 0,0
04.12.2018 17:00:00 0,1 -0,2 9 5 18 10 OZO 995,6 4,7 0,0
04.12.2018 16:00:00 0,0 -0,3 5 3 11 6 OZO 995,5 3,0 0,8
04.12.2018 15:00:00 -0,1 -0,4 8 4 14 8 ZO 995,3 1,5 0,5
04.12.2018 14:00:00 -0,1 -0,4 9 5 14 8 ZO 995,0 2,6 0,0
04.12.2018 13:00:00 -0,2 -0,5 11 6 22 12 ZO 995,0 1,7 0,3
04.12.2018 12:00:00 -0,4 -0,7 16 9 25 14 ZO 994,9 1,0 0,5
04.12.2018 11:00:00 -0,6 -0,9 16 9 25 14 ZO 995,0 1,0 0,3
04.12.2018 10:00:00 -0,7 -1,0 18 10 25 14 ZO 995,0 1,0 0,3
04.12.2018 09:00:00 -0,8 -1,2 15 8 25 14 ZO 995,2 2,5 0,0
04.12.2018 08:00:00 -0,9 -1,3 18 10 25 14 ZO 995,0 3,0 0,2
04.12.2018 07:00:00 -1,0 -1,4 18 10 25 14 ZO 995,0 5 0,3
04.12.2018 06:00:00 -1,0 -1,4 22 12 32 18 ZO 995,2 3,0 0,2
04.12.2018 05:00:00 -0,8 -1,2 22 12 36 19 ZO 995,4 1,8 0,5
04.12.2018 04:00:00 -0,5 -0,9 24 13 36 19 ZO 995,7 6 0,2
04.12.2018 03:00:00 -0,4 -0,8 28 15 36 19 ZO 995,8 2,1 0,4
04.12.2018 02:00:00 -0,1 -0,5 21 11 32 18 ZZO 996,1 10 0,0
04.12.2018 01:00:00 0,0 -0,3 22 12 32 18 ZZO 996,6 3,1 0,2
04.12.2018 00:00:00 0,1 -0,2 24 13 36 19 ZZO 996,7 1,6 0,4
03.12.2018 23:00:00 0,2 0,1 22 12 32 18 ZZO 996,7 3,5 0,4
03.12.2018 22:00:00 0,1 -0,2 24 13 32 18 ZZO 997,0 1,3 1,0
03.12.2018 21:00:00 0,3 -0,1 22 12 36 19 ZZO 997,1 2,0 0,7

tt = temperatuur
td = dauwpunt
ff = windsnelheid
fx = windstoten
dd = windrichting
ppp = luchtdruk
vv = zicht
rr = neerslag

Weerstations in de omgeving